Weather History for KCON - May, 2012

Change the Weather History Date:

Friday, May 11, 2012

  Actual Average Record
Temperature  
Mean Temperature 51 °F 54 °F  
Max Temperature 66 °F 68 °F 92 °F (1911)
Min Temperature 36 °F 41 °F 22 °F (1900)
Degree Days  
Heating Degree Days 14 11  
Month to date heating degree days 139 139  
Since 1 July heating degree days 5880 6986  
Cooling Degree Days 0 0  
Month to date cooling degree days 0 0  
Year to date cooling degree days 9 2  
Growing Degree Days 2 (Base 50)    
Moisture  
Dew Point 34 °F    
Average Humidity 60    
Maximum Humidity 93    
Minimum Humidity 26    
Precipitation  
Precipitation 0.00 in 0.11 in 1.01 in (1995)
Month to date precipitation 2.58 1.25  
Year to date precipitation 11.15 13.25  
Snow  
Snow 0.00 in 0.00 in 0.50 in (1945)
Month to date snowfall 0.0 0.1  
Since 1 July snowfall 48.9 61.5  
Snow Depth 0.00 in    
Sea Level Pressure  
Sea Level Pressure 29.85 in    
Wind  
Wind Speed 9 mph (WNW)    
Max Wind Speed 24 mph    
Max Gust Speed 31 mph    
Visibility 10 miles    
Events      
T = Trace of Precipitation, MM = Missing Value Source: NWS Daily Summary

Daily Weather History Graph

Daily Weather History Graph

Search for Another Location

Airport or City:

Trip Planner

Search our weather history database for the weather conditions in past years. The results will help you decide how hot, cold, wet, or windy it might be!

Date:

Astronomy

May. 11, 2012 Rise Set
Actual Time 5:26 AM EDT 7:59 PM EDT
Civil Twilight 4:53 AM EDT 8:31 PM EDT
Nautical Twilight 4:13 AM EDT 9:12 PM EDT
Astronomical Twilight 3:27 AM EDT 9:58 PM EDT
Moon 12:35 AM EDT (5/11) 10:57 AM EDT (5/11)
Length of Visible Light 15h 38m
Length of Day
14h 33m
Waning Gibbous, 63% of the Moon is Illuminated
May 11
Waning Gibbous
May 12
Last Quarter
May 20
New
May 28
First Quarter
Jun 4
Full

Hourly Weather History & Observations

Time (EDT) Temp. Windchill Dew Point Humidity Pressure Visibility Wind Dir Wind Speed Gust Speed Precip Events Conditions
12:51 AM 45.0 °F - 41.0 °F 86% 29.68 in 10.0 mi Calm Calm - N/A   Clear
1:51 AM 44.1 °F 42.5 °F 37.9 °F 79% 29.68 in 10.0 mi WSW 3.5 mph - N/A   Clear
2:51 AM 39.9 °F - 37.9 °F 93% 29.70 in 10.0 mi Calm Calm - N/A   Clear
3:51 AM 42.1 °F 39.2 °F 37.9 °F 85% 29.72 in 10.0 mi WSW 4.6 mph - N/A   Clear
4:51 AM 44.1 °F 41.5 °F 39.0 °F 82% 29.74 in 10.0 mi SW 4.6 mph - N/A   Overcast
5:51 AM 44.1 °F 40.8 °F 39.0 °F 82% 29.77 in 10.0 mi WNW 5.8 mph - N/A   Overcast
6:51 AM 48.0 °F - 37.9 °F 68% 29.80 in 10.0 mi WNW 10.4 mph 18.4 mph N/A   Partly Cloudy
7:51 AM 50.0 °F - 36.0 °F 59% 29.82 in 10.0 mi WNW 15.0 mph 25.3 mph N/A   Partly Cloudy
8:51 AM 53.1 °F - 36.0 °F 52% 29.83 in 10.0 mi WNW 19.6 mph 25.3 mph N/A   Scattered Clouds
9:51 AM 52.0 °F - 34.0 °F 50% 29.85 in 10.0 mi NW 16.1 mph - N/A   Mostly Cloudy
10:51 AM 55.9 °F - 32.0 °F 40% 29.86 in 10.0 mi NW 21.9 mph 29.9 mph N/A   Scattered Clouds
11:51 AM 59.0 °F - 30.9 °F 35% 29.86 in 10.0 mi WNW 18.4 mph 26.5 mph N/A   Mostly Cloudy
12:51 PM 59.0 °F - 28.9 °F 32% 29.86 in 10.0 mi NW 20.7 mph 29.9 mph N/A   Partly Cloudy
1:51 PM 60.1 °F - 28.9 °F 31% 29.88 in 10.0 mi NW 13.8 mph 25.3 mph N/A   Scattered Clouds
2:51 PM 61.0 °F - 32.0 °F 34% 29.88 in 10.0 mi WNW 8.1 mph 16.1 mph N/A   Scattered Clouds
3:51 PM 60.1 °F - 32.0 °F 35% 29.87 in 10.0 mi SW 8.1 mph - N/A   Scattered Clouds
4:51 PM 64.0 °F - 28.9 °F 27% 29.88 in 10.0 mi WNW 12.7 mph - N/A   Partly Cloudy
5:51 PM 64.9 °F - 28.0 °F 25% 29.88 in 10.0 mi NNW 15.0 mph - N/A   Partly Cloudy
6:51 PM 62.1 °F - 28.9 °F 29% 29.90 in 10.0 mi NNW 9.2 mph - N/A   Partly Cloudy
7:51 PM 57.9 °F - 28.9 °F 33% 29.94 in 10.0 mi North 3.5 mph - N/A   Clear
8:51 PM 48.9 °F - 33.1 °F 54% 29.98 in 10.0 mi Calm Calm - N/A   Partly Cloudy
9:51 PM 45.0 °F - 37.9 °F 76% 30.02 in 10.0 mi Calm Calm - N/A   Mostly Cloudy
10:51 PM 41.0 °F - 39.0 °F 93% 30.03 in 10.0 mi Calm Calm - N/A   Clear
11:51 PM 39.0 °F - 37.0 °F 93% 30.04 in 10.0 mi Calm Calm - N/A   Clear